| time (UTC) | temp F | wind direction | speed knots | gust knots | rain 1hr in | rain 24hr in | rain mn in | humidity % | barometer mb |
| 20260831004953 | 79 | 222 | 0.0 | 0.9 | 0.00 | 0.00 | 0.00 | 92 | 1017.7 |
| 20260831004655 | 79 | 222 | 0.0 | 0.9 | 0.00 | 0.00 | 0.00 | 92 | 1017.7 |
| 20260831002555 | 79 | 222 | 0.0 | 0.9 | 0.00 | 0.00 | 0.00 | 91 | 1017.4 |
| 20260831002025 | 79 | 222 | 0.0 | 0.9 | 0.00 | 0.00 | 0.00 | 91 | 1017.4 |
| 20260831001911 | 80 | 222 | 0.0 | 0.9 | 0.00 | 0.00 | 0.00 | 90 | 1017.3 |
| 20260831001524 | 80 | 222 | 0.0 | 0.9 | 0.00 | 0.00 | 0.00 | 90 | 1017.3 |
| 20260831001025 | 80 | 222 | 0.0 | 0.9 | 0.00 | 0.01 | 0.00 | 90 | 1017.2 |
| 20260831000926 | 80 | 222 | 0.0 | 0.9 | 0.00 | 0.01 | 0.00 | 89 | 1017.1 |
| 20260831000525 | 80 | 222 | 0.0 | 0.9 | 0.00 | 0.01 | 0.00 | 89 | 1017.1 |
| 20260831000313 | 80 | 222 | 0.0 | 0.9 | 0.00 | 0.01 | 0.00 | 89 | 1017.0 |
| 20260831000024 | 80 | 222 | 0.0 | 0.9 | 0.00 | 0.01 | 0.00 | 89 | 1017.0 |
| 20260830235525 | 80 | 222 | 0.0 | 0.9 | 0.00 | 0.01 | 0.00 | 89 | 1017.0 |
| 20260830234231 | 80 | 222 | 0.0 | 0.9 | 0.00 | 0.02 | 0.00 | 89 | 1016.7 |
| 20260830233955 | 80 | 222 | 0.0 | 0.9 | 0.00 | 0.02 | 0.00 | 89 | 1016.7 |
| 20260830233425 | 80 | 222 | 0.0 | 0.9 | 0.00 | 0.03 | 0.00 | 88 | 1016.7 |
| 20260830232926 | 80 | 222 | 0.0 | 0.9 | 0.00 | 0.03 | 0.00 | 88 | 1016.8 |
| 20260830232355 | 80 | 222 | 0.0 | 0.9 | 0.00 | 0.03 | 0.00 | 89 | 1016.8 |
| 20260830232138 | 80 | 222 | 0.0 | 0.9 | 0.00 | 0.04 | 0.00 | 89 | 1016.8 |
| 20260830231825 | 80 | 222 | 0.0 | 0.9 | 0.00 | 0.04 | 0.00 | 89 | 1016.8 |
| 20260830230225 | 80 | 0 | 0.0 | 1.7 | 0.00 | 0.04 | 0.00 | 89 | 1016.8 |
| 20260830223024 | 80 | 237 | 1.7 | 3.5 | 0.00 | 0.08 | 0.00 | 88 | 1016.8 |
| 20260830222524 | 81 | 226 | 0.9 | 3.5 | 0.00 | 0.09 | 0.00 | 88 | 1016.8 |
| 20260830222024 | 81 | 188 | 0.9 | 2.6 | 0.00 | 0.10 | 0.00 | 88 | 1016.9 |
| 20260830221525 | 81 | 196 | 0.9 | 2.6 | 0.00 | 0.12 | 0.00 | 88 | 1016.8 |
| 20260830221024 | 81 | 184 | 0.9 | 2.6 | 0.00 | 0.12 | 0.00 | 88 | 1016.7 |
| 20260830220144 | 81 | 168 | 0.9 | 4.3 | 0.00 | 0.13 | 0.00 | 87 | 1016.5 |
| 20260830215924 | 81 | 168 | 0.9 | 4.3 | 0.00 | 0.13 | 0.00 | 87 | 1016.5 |
| 20260830215712 | 81 | 176 | 0.9 | 4.3 | 0.00 | 0.13 | 0.00 | 87 | 1016.6 |
| 20260830215424 | 81 | 176 | 0.9 | 4.3 | 0.00 | 0.13 | 0.00 | 87 | 1016.6 |
| 20260830215146 | 81 | 177 | 1.7 | 4.3 | 0.00 | 0.13 | 0.00 | 87 | 1016.6 |
| 20260830214924 | 81 | 177 | 1.7 | 4.3 | 0.00 | 0.13 | 0.00 | 87 | 1016.6 |
| 20260830214713 | 81 | 194 | 1.7 | 4.3 | 0.00 | 0.13 | 0.00 | 87 | 1016.6 |
| 20260830214426 | 81 | 194 | 1.7 | 4.3 | 0.00 | 0.13 | 0.00 | 87 | 1016.6 |
| 20260830213354 | 82 | 187 | 2.6 | 9.6 | 0.00 | 0.14 | 0.00 | 84 | 1016.5 |
| 20260830213130 | 82 | 190 | 2.6 | 9.6 | 0.00 | 0.14 | 0.00 | 84 | 1016.5 |
| 20260830212855 | 82 | 190 | 2.6 | 9.6 | 0.00 | 0.14 | 0.00 | 84 | 1016.5 |
| 20260830212324 | 83 | 191 | 2.6 | 6.1 | 0.00 | 0.14 | 0.00 | 82 | 1016.6 |
| 20260830211824 | 83 | 183 | 2.6 | 8.7 | 0.00 | 0.14 | 0.00 | 82 | 1016.5 |
| 20260830210755 | 84 | 126 | 2.6 | 7.8 | 0.00 | 0.21 | 0.00 | 82 | 1016.5 |
| 20260830210502 | 84 | 109 | 2.6 | 7.8 | 0.00 | 0.25 | 0.00 | 81 | 1016.7 |
| 20260830210225 | 84 | 109 | 2.6 | 7.8 | 0.00 | 0.25 | 0.00 | 81 | 1016.7 |
| 20260830205724 | 84 | 104 | 3.5 | 7.8 | 0.00 | 0.30 | 0.00 | 83 | 1016.7 |
| 20260830205225 | 84 | 99 | 4.3 | 8.7 | 0.00 | 0.32 | 0.00 | 84 | 1016.8 |
| 20260830204724 | 84 | 114 | 2.6 | 8.7 | 0.00 | 0.33 | 0.00 | 83 | 1016.9 |
| 20260830203655 | 84 | 103 | 6.1 | 12.2 | 0.00 | 0.33 | 0.00 | 86 | 1016.7 |
| 20260830203154 | 84 | 102 | 7.0 | 12.2 | 0.00 | 0.33 | 0.00 | 85 | 1016.5 |
| 20260830202654 | 85 | 103 | 7.8 | 13.9 | 0.00 | 0.33 | 0.00 | 86 | 1016.6 |
| 20260830201554 | 85 | 101 | 8.7 | 14.8 | 0.00 | 0.33 | 0.00 | 86 | 1016.5 |
| 20260830201231 | 85 | 100 | 8.7 | 13.0 | 0.00 | 0.33 | 0.00 | 87 | 1016.5 |
| 20260830201055 | 85 | 100 | 8.7 | 13.0 | 0.00 | 0.33 | 0.00 | 87 | 1016.5 |
| 20260830200554 | 85 | 100 | 7.0 | 13.0 | 0.00 | 0.33 | 0.00 | 86 | 1016.4 |
| 20260830200318 | 85 | 101 | 7.8 | 16.5 | 0.00 | 0.33 | 0.00 | 85 | 1016.4 |
| 20260830200055 | 85 | 101 | 7.8 | 16.5 | 0.00 | 0.33 | 0.00 | 85 | 1016.4 |
| 20260830195524 | 85 | 100 | 10.4 | 16.5 | 0.00 | 0.33 | 0.00 | 85 | 1016.4 |
| 20260830194954 | 85 | 98 | 11.3 | 16.5 | 0.00 | 0.33 | 0.00 | 83 | 1016.5 |
| 20260830194214 | 87 | 99 | 9.6 | 15.6 | 0.00 | 0.33 | 0.00 | 82 | 1016.5 |
| 20260830193925 | 87 | 99 | 9.6 | 15.6 | 0.00 | 0.33 | 0.00 | 82 | 1016.5 |
| 20260830193719 | 88 | 99 | 7.8 | 17.4 | 0.00 | 0.33 | 0.00 | 79 | 1016.6 |
| 20260830193425 | 88 | 99 | 7.8 | 17.4 | 0.00 | 0.33 | 0.00 | 79 | 1016.6 |
| 20260830192355 | 90 | 98 | 7.0 | 23.5 | 0.00 | 0.33 | 0.00 | 75 | 1016.5 |
| 20260830192001 | 92 | 97 | 7.8 | 23.5 | 0.00 | 0.33 | 0.00 | 72 | 1016.4 |
| 20260830191825 | 92 | 97 | 7.8 | 23.5 | 0.00 | 0.33 | 0.00 | 72 | 1016.4 |
| 20260830190755 | 93 | 98 | 6.1 | 11.3 | 0.00 | 0.33 | 0.00 | 65 | 1016.5 |
| 20260830190544 | 93 | 101 | 3.5 | 8.7 | 0.00 | 0.33 | 0.00 | 71 | 1016.4 |
| 20260830190225 | 93 | 101 | 3.5 | 8.7 | 0.00 | 0.33 | 0.00 | 71 | 1016.4 |
| 20260830190013 | 92 | 98 | 3.5 | 10.4 | 0.00 | 0.33 | 0.00 | 70 | 1016.6 |
| 20260830185654 | 92 | 98 | 3.5 | 10.4 | 0.00 | 0.33 | 0.00 | 70 | 1016.6 |
| 20260830184655 | 92 | 91 | 4.3 | 10.4 | 0.00 | 0.33 | 0.00 | 70 | 1016.8 |
| 20260830182025 | 92 | 98 | 4.3 | 9.6 | 0.00 | 0.33 | 0.00 | 71 | 1017.0 |
| 20260830181524 | 92 | 101 | 4.3 | 7.8 | 0.00 | 0.33 | 0.00 | 70 | 1017.1 |
| 20260830180954 | 92 | 104 | 4.3 | 7.8 | 0.00 | 0.33 | 0.00 | 74 | 1017.2 |
| 20260830180830 | 91 | 98 | 4.3 | 7.8 | 0.00 | 0.33 | 0.00 | 74 | 1017.3 |
| 20260830180455 | 91 | 98 | 4.3 | 7.8 | 0.00 | 0.33 | 0.00 | 74 | 1017.3 |
| 20260830175925 | 91 | 89 | 3.5 | 7.8 | 0.00 | 0.33 | 0.00 | 74 | 1017.2 |
| 20260830175847 | 78 | 32 | 0.9 | 2.6 | 0.06 | 0.06 | 0.06 | 94 | 1017.6 |
| 20260830175354 | 91 | 93 | 4.3 | 7.8 | 0.00 | 0.33 | 0.00 | 72 | 1017.3 |
| 20260830174854 | 91 | 89 | 3.5 | 7.8 | 0.00 | 0.33 | 0.00 | 72 | 1017.3 |
| 20260830173824 | 90 | 97 | 5.2 | 8.7 | 0.00 | 0.33 | 0.00 | 73 | 1017.5 |
| 20260830173627 | 90 | 91 | 5.2 | 8.7 | 0.00 | 0.33 | 0.00 | 73 | 1017.6 |
| 20260830173255 | 90 | 91 | 5.2 | 8.7 | 0.00 | 0.33 | 0.00 | 73 | 1017.6 |
| 20260830172755 | 90 | 92 | 5.2 | 9.6 | 0.00 | 0.33 | 0.00 | 72 | 1017.8 |
| 20260830172224 | 91 | 96 | 5.2 | 9.6 | 0.00 | 0.33 | 0.00 | 75 | 1017.8 |
| 20260830170655 | 90 | 92 | 4.3 | 9.6 | 0.00 | 0.33 | 0.00 | 78 | 1018.0 |
| 20260830170155 | 90 | 87 | 3.5 | 9.6 | 0.00 | 0.33 | 0.00 | 77 | 1018.1 |
| 20260830165054 | 90 | 90 | 2.6 | 7.0 | 0.00 | 0.33 | 0.00 | 78 | 1018.2 |
| 20260830164555 | 89 | 89 | 2.6 | 7.0 | 0.00 | 0.33 | 0.00 | 75 | 1018.3 |
| 20260830163455 | 89 | 90 | 2.6 | 6.1 | 0.00 | 0.33 | 0.00 | 77 | 1018.3 |
| 20260830162924 | 89 | 92 | 2.6 | 6.1 | 0.00 | 0.33 | 0.00 | 76 | 1018.3 |
| 20260830162354 | 89 | 98 | 2.6 | 7.0 | 0.00 | 0.33 | 0.00 | 77 | 1018.3 |
| 20260830161855 | 88 | 99 | 1.7 | 7.0 | 0.00 | 0.33 | 0.00 | 82 | 1018.2 |
| 20260830161324 | 88 | 93 | 3.5 | 7.8 | 0.00 | 0.33 | 0.00 | 79 | 1018.3 |
| 20260830160824 | 88 | 94 | 3.5 | 7.8 | 0.00 | 0.33 | 0.00 | 81 | 1018.3 |
| 20260830160325 | 88 | 97 | 2.6 | 7.8 | 0.00 | 0.33 | 0.00 | 81 | 1018.4 |
| 20260830160142 | 88 | 95 | 1.7 | 6.1 | 0.00 | 0.33 | 0.00 | 79 | 1018.5 |
| 20260830155824 | 88 | 95 | 1.7 | 6.1 | 0.00 | 0.33 | 0.00 | 79 | 1018.5 |
| 20260830155255 | 88 | 94 | 2.6 | 7.8 | 0.00 | 0.33 | 0.00 | 80 | 1018.5 |
| 20260830155137 | 88 | 92 | 2.6 | 7.8 | 0.00 | 0.33 | 0.00 | 79 | 1018.5 |
| 20260830154754 | 88 | 92 | 2.6 | 7.8 | 0.00 | 0.33 | 0.00 | 79 | 1018.5 |
| 20260830153654 | 88 | 99 | 2.6 | 6.1 | 0.00 | 0.33 | 0.00 | 81 | 1018.6 |
| 20260830152554 | 87 | 97 | 1.7 | 3.5 | 0.00 | 0.33 | 0.00 | 83 | 1018.8 |
| 20260830151554 | 87 | 93 | 1.7 | 5.2 | 0.00 | 0.33 | 0.00 | 85 | 1018.8 |
| 20260830150525 | 86 | 96 | 2.6 | 5.2 | 0.00 | 0.33 | 0.00 | 89 | 1018.9 |
| 20260830145955 | 85 | 96 | 1.7 | 6.1 | 0.00 | 0.33 | 0.00 | 89 | 1019.0 |
| 20260830145424 | 85 | 95 | 1.7 | 6.1 | 0.00 | 0.33 | 0.00 | 89 | 1019.0 |
| 20260830144924 | 84 | 92 | 1.7 | 5.2 | 0.00 | 0.33 | 0.00 | 91 | 1018.9 |
| 20260830144356 | 83 | 91 | 2.6 | 5.2 | 0.00 | 0.33 | 0.00 | 93 | 1018.9 |
| 20260830143824 | 82 | 93 | 1.7 | 6.1 | 0.00 | 0.33 | 0.00 | 93 | 1018.9 |
| 20260830143708 | 82 | 95 | 0.9 | 6.1 | 0.00 | 0.33 | 0.00 | 94 | 1018.9 |
| 20260830143325 | 82 | 95 | 0.9 | 6.1 | 0.00 | 0.33 | 0.00 | 94 | 1018.9 |
| 20260830141724 | 81 | 77 | 1.7 | 3.5 | 0.00 | 0.33 | 0.00 | 95 | 1019.0 |
| 20260830141100 | 80 | 50 | 0.9 | 2.6 | 0.00 | 0.33 | 0.00 | 97 | 1019.0 |
| 20260830140654 | 80 | 50 | 0.9 | 2.6 | 0.00 | 0.33 | 0.00 | 97 | 1019.0 |
| 20260830135233 | 79 | 42 | 0.9 | 2.6 | 0.00 | 0.33 | 0.00 | 98 | 1019.0 |
| 20260830135055 | 79 | 42 | 0.9 | 2.6 | 0.00 | 0.33 | 0.00 | 98 | 1019.0 |
| 20260830134555 | 79 | 37 | 0.9 | 2.6 | 0.00 | 0.33 | 0.00 | 98 | 1019.0 |
| 20260830134024 | 78 | 24 | 0.9 | 2.6 | 0.00 | 0.33 | 0.00 | 98 | 1018.9 |
| 20260830133454 | 78 | 25 | 0.9 | 2.6 | 0.00 | 0.33 | 0.00 | 99 | 1018.8 |
| 20260830132955 | 78 | 26 | 0.9 | 2.6 | 0.00 | 0.33 | 0.00 | 100 | 1018.8 |
| 20260830132424 | 78 | 12 | 0.9 | 2.6 | 0.00 | 0.33 | 0.00 | 100 | 1018.8 |
| 20260830131720 | 77 | 34 | 0.9 | 2.6 | 0.00 | 0.33 | 0.00 | 100 | 1018.8 |
| 20260830131354 | 77 | 34 | 0.9 | 2.6 | 0.00 | 0.33 | 0.00 | 100 | 1018.8 |
| 20260830125724 | 77 | 78 | 0.0 | 1.7 | 0.00 | 0.33 | 0.00 | 100 | 1018.8 |
| 20260830125155 | 76 | 78 | 0.0 | 1.7 | 0.00 | 0.33 | 0.00 | 100 | 1018.7 |
| 20260830124055 | 76 | 78 | 0.0 | 0.9 | 0.00 | 0.33 | 0.00 | 100 | 1018.8 |
| 20260830123554 | 76 | 78 | 0.0 | 0.9 | 0.00 | 0.33 | 0.00 | 100 | 1018.7 |
| 20260830121720 | 76 | 78 | 0.0 | 0.9 | 0.00 | 0.33 | 0.00 | 100 | 1018.4 |
| 20260830121425 | 76 | 78 | 0.0 | 0.9 | 0.00 | 0.33 | 0.00 | 100 | 1018.4 |
| 20260830121207 | 76 | 78 | 0.0 | 0.9 | 0.00 | 0.33 | 0.00 | 100 | 1018.3 |
| 20260830120925 | 76 | 78 | 0.0 | 0.9 | 0.00 | 0.33 | 0.00 | 100 | 1018.3 |
| 20260830120637 | 76 | 78 | 0.0 | 0.9 | 0.00 | 0.33 | 0.00 | 100 | 1018.3 |
| 20260830120355 | 76 | 78 | 0.0 | 0.9 | 0.00 | 0.33 | 0.00 | 100 | 1018.3 |
| 20260830120149 | 75 | 80 | 0.0 | 0.9 | 0.00 | 0.33 | 0.00 | 100 | 1018.1 |
| 20260830115824 | 75 | 80 | 0.0 | 0.9 | 0.00 | 0.33 | 0.00 | 100 | 1018.1 |
| 20260830115255 | 75 | 80 | 0.0 | 0.9 | 0.00 | 0.33 | 0.00 | 100 | 1018.0 |
| 20260830114755 | 75 | 80 | 0.9 | 0.9 | 0.00 | 0.33 | 0.00 | 100 | 1018.0 |
| 20260830114501 | 75 | 80 | 0.9 | 0.9 | 0.00 | 0.33 | 0.00 | 100 | 1017.9 |
| 20260830114224 | 75 | 80 | 0.9 | 0.9 | 0.00 | 0.33 | 0.00 | 100 | 1017.9 |
| 20260830113337 | 75 | 80 | 0.9 | 1.7 | 0.00 | 0.33 | 0.00 | 100 | 1017.8 |
| 20260830113154 | 75 | 80 | 0.9 | 1.7 | 0.00 | 0.33 | 0.00 | 100 | 1017.8 |
| 20260830105554 | 75 | 80 | 0.0 | 0.9 | 0.00 | 0.33 | 0.00 | 100 | 1017.2 |
| 20260830105054 | 75 | 80 | 0.9 | 1.7 | 0.00 | 0.33 | 0.00 | 100 | 1017.1 |
| 20260830103955 | 76 | 79 | 0.9 | 2.6 | 0.00 | 0.33 | 0.00 | 100 | 1017.1 |
| 20260830102924 | 76 | 82 | 1.7 | 3.5 | 0.00 | 0.33 | 0.00 | 100 | 1017.1 |
| 20260830102355 | 76 | 82 | 1.7 | 3.5 | 0.00 | 0.33 | 0.00 | 100 | 1017.0 |
| 20260830101855 | 75 | 86 | 1.7 | 5.2 | 0.00 | 0.33 | 0.00 | 100 | 1016.9 |
| 20260830101600 | 75 | 88 | 1.7 | 5.2 | 0.00 | 0.33 | 0.00 | 100 | 1016.9 |
| 20260830101355 | 75 | 88 | 1.7 | 5.2 | 0.00 | 0.33 | 0.00 | 100 | 1016.9 |
| 20260830101052 | 75 | 82 | 0.9 | 3.5 | 0.00 | 0.33 | 0.00 | 100 | 1016.9 |
| 20260830100825 | 75 | 82 | 0.9 | 3.5 | 0.00 | 0.33 | 0.00 | 100 | 1016.9 |
| 20260830100324 | 75 | 85 | 0.9 | 2.6 | 0.00 | 0.33 | 0.00 | 100 | 1016.9 |
| 20260830095540 | 75 | 82 | 0.9 | 2.6 | 0.00 | 0.33 | 0.00 | 100 | 1016.7 |
| 20260830095225 | 75 | 82 | 0.9 | 2.6 | 0.00 | 0.33 | 0.00 | 100 | 1016.7 |
| 20260830094445 | 75 | 77 | 0.9 | 1.7 | 0.00 | 0.33 | 0.00 | 100 | 1016.8 |
| 20260830094156 | 75 | 77 | 0.9 | 1.7 | 0.00 | 0.33 | 0.00 | 100 | 1016.8 |
| 20260830093026 | 93 | 227 | 2.6 | 7.0 | 0.00 | 0.48 | 0.00 | 65 | 1016.9 |
| 20260830092554 | 75 | 84 | 0.9 | 2.6 | 0.00 | 0.33 | 0.00 | 100 | 1016.8 |
| 20260830092319 | 75 | 91 | 0.9 | 1.7 | 0.00 | 0.33 | 0.00 | 100 | 1016.6 |
| 20260830092055 | 75 | 91 | 0.9 | 1.7 | 0.00 | 0.33 | 0.00 | 100 | 1016.6 |
| 20260830091733 | 75 | 100 | 0.0 | 1.7 | 0.00 | 0.33 | 0.00 | 100 | 1016.7 |
| 20260830091554 | 75 | 100 | 0.0 | 1.7 | 0.00 | 0.33 | 0.00 | 100 | 1016.7 |
| 20260830091055 | 75 | 0 | 0.0 | 0.0 | 0.00 | 0.33 | 0.00 | 100 | 1016.6 |
| 20260830090524 | 75 | 100 | 0.0 | 0.9 | 0.00 | 0.33 | 0.00 | 100 | 1016.7 |
| 20260830085425 | 75 | 100 | 0.0 | 0.9 | 0.00 | 0.33 | 0.00 | 100 | 1016.7 |
| 20260830085138 | 75 | 100 | 0.9 | 0.9 | 0.00 | 0.33 | 0.00 | 100 | 1016.8 |
| 20260830084856 | 75 | 100 | 0.9 | 0.9 | 0.00 | 0.33 | 0.00 | 100 | 1016.8 |
| 20260830084711 | 75 | 91 | 0.9 | 1.7 | 0.00 | 0.33 | 0.00 | 100 | 1016.8 |
| 20260830084354 | 75 | 91 | 0.9 | 1.7 | 0.00 | 0.33 | 0.00 | 100 | 1016.8 |
| 20260830084155 | 75 | 70 | 0.9 | 2.6 | 0.00 | 0.33 | 0.00 | 100 | 1016.8 |
| 20260830083855 | 75 | 70 | 0.9 | 2.6 | 0.00 | 0.33 | 0.00 | 100 | 1016.8 |
| 20260830083541 | 75 | 34 | 0.0 | 2.6 | 0.00 | 0.33 | 0.00 | 100 | 1016.9 |
| 20260830083325 | 75 | 34 | 0.0 | 2.6 | 0.00 | 0.33 | 0.00 | 100 | 1016.9 |
| 20260830082755 | 75 | 1 | 0.0 | 0.9 | 0.00 | 0.33 | 0.00 | 100 | 1016.9 |
| 20260830082523 | 75 | 344 | 0.0 | 0.9 | 0.00 | 0.33 | 0.00 | 100 | 1017.0 |
| 20260830082224 | 75 | 344 | 0.0 | 0.9 | 0.00 | 0.33 | 0.00 | 100 | 1017.0 |
| 20260830081654 | 75 | 344 | 0.0 | 0.9 | 0.00 | 0.33 | 0.00 | 100 | 1017.1 |
| 20260830080321 | 74 | 117 | 0.0 | 0.9 | 0.00 | 0.33 | 0.00 | 100 | 1017.2 |
| 20260830080055 | 74 | 117 | 0.0 | 0.9 | 0.00 | 0.33 | 0.00 | 100 | 1017.2 |
| 20260830075755 | 74 | 0 | 0.0 | 0.0 | 0.00 | 0.33 | 0.00 | 100 | 1017.3 |
| 20260830075554 | 74 | 0 | 0.0 | 0.0 | 0.00 | 0.33 | 0.00 | 100 | 1017.3 |
| 20260830075054 | 74 | 0 | 0.0 | 0.0 | 0.00 | 0.33 | 0.00 | 100 | 1017.4 |
| 20260830074839 | 74 | 117 | 0.0 | 0.9 | 0.00 | 0.33 | 0.00 | 100 | 1017.4 |
| 20260830074524 | 74 | 117 | 0.0 | 0.9 | 0.00 | 0.33 | 0.00 | 100 | 1017.4 |
| 20260830074157 | 75 | 88 | 0.9 | 2.6 | 0.00 | 0.33 | 0.00 | 100 | 1017.3 |
| 20260830073954 | 75 | 88 | 0.9 | 2.6 | 0.00 | 0.33 | 0.00 | 100 | 1017.3 |
| 20260830073753 | 75 | 87 | 0.9 | 3.5 | 0.00 | 0.33 | 0.00 | 100 | 1017.3 |
| 20260830073455 | 75 | 87 | 0.9 | 3.5 | 0.00 | 0.33 | 0.00 | 100 | 1017.3 |
| 20260830071206 | 75 | 0 | 0.0 | 0.0 | 0.00 | 0.33 | 0.00 | 100 | 1017.8 |
| 20260830070925 | 75 | 0 | 0.0 | 0.0 | 0.00 | 0.33 | 0.00 | 100 | 1017.8 |
| 20260830070719 | 75 | 0 | 0.0 | 0.0 | 0.00 | 0.33 | 0.00 | 100 | 1017.8 |
| 20260830070424 | 75 | 0 | 0.0 | 0.0 | 0.00 | 0.33 | 0.00 | 100 | 1017.8 |
| 20260830065854 | 75 | 182 | 0.0 | 0.9 | 0.00 | 0.33 | 0.00 | 100 | 1017.8 |
| 20260830064824 | 75 | 182 | 0.0 | 0.9 | 0.00 | 0.33 | 0.00 | 100 | 1017.7 |
| 20260830064132 | 75 | 147 | 0.0 | 0.9 | 0.00 | 0.33 | 0.00 | 100 | 1017.6 |
| 20260830063825 | 75 | 147 | 0.0 | 0.9 | 0.00 | 0.33 | 0.00 | 100 | 1017.6 |
| 20260830062754 | 75 | 105 | 1.7 | 3.5 | 0.00 | 0.33 | 0.00 | 100 | 1017.9 |
| 20260830062254 | 75 | 104 | 1.7 | 3.5 | 0.00 | 0.33 | 0.00 | 100 | 1017.8 |
| 20260830060724 | 75 | 88 | 1.7 | 6.1 | 0.00 | 0.33 | 0.00 | 100 | 1017.8 |
| 20260830060154 | 75 | 89 | 0.9 | 3.5 | 0.00 | 0.33 | 0.00 | 100 | 1017.8 |
| 20260830055548 | 75 | 63 | 0.0 | 0.9 | 0.00 | 0.33 | 0.00 | 100 | 1017.8 |
| 20260830055154 | 75 | 63 | 0.0 | 0.9 | 0.00 | 0.33 | 0.00 | 100 | 1017.8 |
| 20260830054624 | 75 | 77 | 0.9 | 2.6 | 0.00 | 0.33 | 0.00 | 100 | 1017.8 |
| 20260830054054 | 74 | 88 | 1.7 | 3.5 | 0.00 | 0.33 | 0.00 | 100 | 1018.0 |
| 20260830053733 | 74 | 93 | 0.9 | 3.5 | 0.00 | 0.33 | 0.00 | 100 | 1018.0 |
| 20260830053524 | 74 | 93 | 0.9 | 3.5 | 0.00 | 0.33 | 0.00 | 100 | 1018.0 |
| 20260830053235 | 74 | 89 | 0.0 | 1.7 | 0.00 | 0.33 | 0.00 | 100 | 1018.1 |
| 20260830053024 | 74 | 89 | 0.0 | 1.7 | 0.00 | 0.33 | 0.00 | 100 | 1018.1 |
| 20260830052834 | 74 | 0 | 0.0 | 0.0 | 0.00 | 0.33 | 0.00 | 100 | 1018.0 |
| 20260830052455 | 74 | 0 | 0.0 | 0.0 | 0.00 | 0.33 | 0.00 | 100 | 1018.0 |
| 20260830051424 | 75 | 0 | 0.0 | 0.0 | 0.00 | 0.33 | 0.00 | 100 | 1018.2 |
| 20260830051143 | 75 | 0 | 0.0 | 0.0 | 0.00 | 0.33 | 0.00 | 100 | 1018.3 |
| 20260830050856 | 75 | 0 | 0.0 | 0.0 | 0.00 | 0.33 | 0.00 | 100 | 1018.3 |
| 20260830050628 | 75 | 0 | 0.0 | 0.0 | 0.00 | 0.33 | 0.00 | 100 | 1018.3 |
| 20260830050356 | 75 | 0 | 0.0 | 0.0 | 0.00 | 0.33 | 0.00 | 100 | 1018.3 |
| 20260830045854 | 75 | 0 | 0.0 | 0.0 | 0.00 | 0.33 | 0.00 | 100 | 1018.5 |
| 20260830045517 | 75 | 0 | 0.0 | 0.0 | 0.00 | 0.33 | 0.00 | 100 | 1018.7 |
| 20260830045324 | 75 | 0 | 0.0 | 0.0 | 0.00 | 0.33 | 0.00 | 100 | 1018.7 |
| 20260830043754 | 75 | 277 | 0.0 | 0.9 | 0.00 | 0.33 | 0.00 | 100 | 1018.5 |
| 20260830042725 | 75 | 277 | 0.0 | 0.9 | 0.00 | 0.33 | 0.00 | 100 | 1018.6 |
| 20260830042154 | 75 | 277 | 0.0 | 1.7 | 0.00 | 0.33 | 0.00 | 100 | 1018.5 |
| 20260830041624 | 75 | 268 | 0.9 | 1.7 | 0.00 | 0.33 | 0.00 | 100 | 1018.6 |
| 20260830041054 | 75 | 253 | 0.9 | 1.7 | 0.00 | 0.33 | 0.00 | 100 | 1018.6 |
| 20260830040555 | 75 | 249 | 0.9 | 1.7 | 0.00 | 0.33 | 0.00 | 100 | 1018.7 |
| 20260830040320 | 75 | 244 | 0.9 | 1.7 | 0.00 | 0.33 | 0.00 | 100 | 1018.7 |
| 20260830040024 | 75 | 244 | 0.9 | 1.7 | 0.00 | 0.33 | 0.00 | 100 | 1018.7 |
| 20260830035454 | 75 | 238 | 0.9 | 2.6 | 0.00 | 0.33 | 0.33 | 100 | 1018.8 |
| 20260830034954 | 75 | 236 | 0.9 | 2.6 | 0.00 | 0.33 | 0.33 | 100 | 1018.7 |
| 20260830034728 | 75 | 236 | 0.0 | 0.9 | 0.00 | 0.33 | 0.33 | 100 | 1018.6 |
| 20260830034456 | 75 | 236 | 0.0 | 0.9 | 0.00 | 0.33 | 0.33 | 100 | 1018.6 |
| 20260830033722 | 75 | 236 | 0.0 | 0.9 | 0.00 | 0.33 | 0.33 | 99 | 1018.2 |
| 20260830033454 | 75 | 236 | 0.0 | 0.9 | 0.00 | 0.33 | 0.33 | 99 | 1018.2 |
| 20260830033131 | 75 | 236 | 0.0 | 0.9 | 0.00 | 0.33 | 0.33 | 99 | 1018.2 |
| 20260830032924 | 75 | 236 | 0.0 | 0.9 | 0.00 | 0.33 | 0.33 | 99 | 1018.2 |
| 20260830031924 | 75 | 250 | 0.0 | 1.7 | 0.00 | 0.33 | 0.33 | 99 | 1018.3 |
| 20260830031424 | 75 | 236 | 0.9 | 2.6 | 0.00 | 0.33 | 0.33 | 99 | 1018.3 |
| 20260830030925 | 75 | 170 | 0.9 | 2.6 | 0.00 | 0.33 | 0.33 | 99 | 1018.2 |
| 20260830030126 | 76 | 91 | 0.9 | 3.5 | 0.00 | 0.33 | 0.33 | 99 | 1018.4 |
| 20260830025855 | 76 | 91 | 0.9 | 3.5 | 0.00 | 0.33 | 0.33 | 99 | 1018.4 |
| 20260830025633 | 75 | 84 | 0.9 | 2.6 | 0.00 | 0.33 | 0.33 | 99 | 1018.4 |
| 20260830025530 | 75 | 86 | 0.9 | 2.6 | 0.00 | 0.33 | 0.33 | 99 | 1018.3 |
| 20260830025354 | 75 | 84 | 0.9 | 2.6 | 0.00 | 0.33 | 0.33 | 99 | 1018.4 |
| 20260830025224 | 75 | 86 | 0.9 | 2.6 | 0.00 | 0.33 | 0.33 | 99 | 1018.3 |
| 20260830024854 | 75 | 86 | 0.9 | 2.6 | 0.00 | 0.33 | 0.33 | 99 | 1018.3 |
| 20260830024524 | 75 | 110 | 0.0 | 0.9 | 0.00 | 0.33 | 0.33 | 99 | 1018.4 |
| 20260830024324 | 75 | 110 | 0.0 | 0.9 | 0.00 | 0.33 | 0.33 | 99 | 1018.4 |
| 20260830024042 | 75 | 110 | 0.0 | 0.9 | 0.00 | 0.33 | 0.33 | 99 | 1018.4 |
| 20260830023754 | 75 | 110 | 0.0 | 0.9 | 0.00 | 0.33 | 0.33 | 99 | 1018.4 |
| 20260830023545 | 75 | 101 | 0.0 | 1.7 | 0.00 | 0.33 | 0.33 | 99 | 1018.5 |
| 20260830023254 | 75 | 101 | 0.0 | 1.7 | 0.00 | 0.33 | 0.33 | 99 | 1018.5 |
| 20260830023031 | 75 | 88 | 0.9 | 2.6 | 0.00 | 0.33 | 0.33 | 99 | 1018.6 |
| 20260830022826 | 75 | 88 | 0.9 | 2.6 | 0.00 | 0.33 | 0.33 | 99 | 1018.6 |
| 20260830022755 | 75 | 88 | 0.9 | 2.6 | 0.00 | 0.33 | 0.33 | 99 | 1018.6 |
| 20260830022456 | 75 | 83 | 0.9 | 2.6 | 0.00 | 0.33 | 0.33 | 99 | 1018.6 |
| 20260830022254 | 75 | 83 | 0.9 | 2.6 | 0.00 | 0.33 | 0.33 | 99 | 1018.6 |
| 20260830022001 | 75 | 80 | 0.9 | 2.6 | 0.00 | 0.33 | 0.33 | 99 | 1018.4 |
| 20260830021754 | 75 | 80 | 0.9 | 2.6 | 0.00 | 0.33 | 0.33 | 99 | 1018.4 |
| 20260830021540 | 75 | 67 | 0.9 | 2.6 | 0.00 | 0.33 | 0.33 | 99 | 1018.2 |
| 20260830021255 | 75 | 67 | 0.9 | 2.6 | 0.00 | 0.33 | 0.33 | 99 | 1018.2 |
| 20260830021010 | 75 | 68 | 1.7 | 2.6 | 0.00 | 0.33 | 0.33 | 99 | 1018.2 |
| 20260830020754 | 75 | 68 | 1.7 | 2.6 | 0.00 | 0.33 | 0.33 | 99 | 1018.2 |
| 20260830020543 | 76 | 74 | 1.7 | 3.5 | 0.00 | 0.33 | 0.33 | 99 | 1018.3 |
| 20260830020255 | 76 | 74 | 1.7 | 3.5 | 0.00 | 0.33 | 0.33 | 99 | 1018.3 |
| 20260830014847 | 76 | 70 | 1.7 | 2.6 | 0.00 | 0.33 | 0.33 | 99 | 1018.2 |
| 20260830014654 | 76 | 70 | 1.7 | 2.6 | 0.00 | 0.33 | 0.33 | 99 | 1018.2 |
| 20260830014339 | 76 | 69 | 0.9 | 2.6 | 0.00 | 0.33 | 0.33 | 99 | 1018.2 |
| 20260830014154 | 76 | 69 | 0.9 | 2.6 | 0.00 | 0.33 | 0.33 | 99 | 1018.2 |
| 20260830013654 | 76 | 62 | 0.9 | 2.6 | 0.00 | 0.33 | 0.33 | 99 | 1018.1 |
| 20260830012918 | 76 | 63 | 0.9 | 2.6 | 0.00 | 0.33 | 0.33 | 99 | 1017.8 |
| 20260830012654 | 76 | 63 | 0.9 | 2.6 | 0.00 | 0.33 | 0.33 | 99 | 1017.8 |
| 20260830012316 | 76 | 72 | 1.7 | 2.6 | 0.00 | 0.33 | 0.33 | 99 | 1017.7 |
| 20260830012124 | 76 | 72 | 1.7 | 2.6 | 0.00 | 0.33 | 0.33 | 99 | 1017.7 |
| 20260830011258 | 76 | 82 | 1.7 | 3.5 | 0.01 | 0.33 | 0.33 | 99 | 1017.4 |
| 20260830011054 | 76 | 82 | 1.7 | 3.5 | 0.01 | 0.33 | 0.33 | 99 | 1017.4 |
| 20260830010526 | 76 | 80 | 1.7 | 5.2 | 0.01 | 0.33 | 0.33 | 99 | 1017.3 |
| 20260830010133 | 76 | 85 | 2.6 | 7.0 | 0.01 | 0.33 | 0.33 | 99 | 1017.3 |
| 20260830005955 | 76 | 85 | 2.6 | 7.0 | 0.01 | 0.33 | 0.33 | 99 | 1017.3 |
| 20260830005424 | 76 | 93 | 2.6 | 7.0 | 0.01 | 0.33 | 0.33 | 99 | 1017.2 |
| 20260830005159 | 76 | 98 | 1.7 | 5.2 | 0.02 | 0.33 | 0.33 | 99 | 1017.2 |